Total_Precipitation_Accumulation
2.40 2.67 3.56 4.56 5.37 4.25 3.20 2.59 2.19 1.93 1.55 1.16 0.95 0.97 1.35 1.92 2.35 2.52 2.25 1.96 1.28 1.17 1.39 2.09 2.64 2.51 2.32 2.32 2.34 2.41 2.55 2.61 2.59 2.69 2.70 2.62 2.82 2.92 2.88 2.87 2.75 2.66 2.55 2.58 2.59 2.58 2.60 2.37 2.43
2.06 2.88 4.21 5.25 4.64 3.33 2.94 2.37 2.03 1.69 1.26 0.95 0.80 0.74 0.92 0.80 0.75 1.27 2.33 2.24 1.23 0.98 1.21 1.81 2.64 2.56 2.43 2.47 2.54 2.62 2.67 2.48 2.36 2.38 2.41 2.49 2.73 2.90 2.97 3.00 2.85 2.85 2.79 2.63 2.43 2.36 2.53 2.46 2.50
2.37 3.35 4.67 4.82 3.42 2.71 2.76 2.16 1.60 1.12 0.84 0.87 0.87 0.75 0.88 1.08 1.18 1.67 2.17 1.57 1.13 1.03 1.18 1.90 2.71 2.51 2.44 2.51 2.67 2.62 2.51 2.48 2.44 2.46 2.52 2.54 2.70 2.87 2.95 2.92 2.89 2.93 2.89 2.75 2.61 2.45 2.56 2.53 2.55
2.68 3.85 4.24 3.62 2.75 2.14 1.91 1.64 1.27 1.05 0.75 0.52 0.68 0.89 0.84 1.12 1.32 1.55 1.51 1.11 0.89 0.94 1.10 1.75 2.59 2.47 2.41 2.45 2.65 2.49 2.38 2.55 2.60 2.60 2.69 2.72 2.93 3.15 3.09 2.97 3.09 3.01 2.94 2.76 2.73 2.62 2.62 2.57 2.54
3.00 3.84 3.82 3.38 2.54 2.21 1.68 1.33 1.11 1.09 0.87 0.59 0.57 0.92 1.12 1.48 1.44 1.41 1.31 1.09 0.93 0.96 1.07 1.48 2.28 2.35 2.34 2.42 2.53 2.43 2.46 2.64 2.54 2.55 2.68 2.75 2.90 3.12 3.16 3.05 3.11 3.13 3.18 3.05 2.91 2.80 2.67 2.58 2.60
3.44 3.50 3.60 3.34 2.76 2.44 1.89 1.38 1.01 0.94 0.80 0.63 0.62 0.94 1.35 1.77 1.71 1.63 1.39 1.28 1.17 1.07 1.02 1.21 1.91 2.09 2.15 2.37 2.41 2.39 2.41 2.51 2.43 2.47 2.57 2.68 2.78 2.92 2.97 2.93 3.04 3.10 3.12 3.09 2.90 2.77 2.64 2.64 2.62
3.27 3.19 2.89 2.45 2.61 2.75 1.96 1.24 1.13 1.08 1.04 0.88 0.64 0.98 1.42 1.87 1.78 1.55 1.53 1.55 1.60 1.43 1.27 1.28 1.43 1.54 1.89 2.31 2.36 2.42 2.45 2.38 2.28 2.31 2.35 2.38 2.41 2.60 2.67 2.69 2.92 3.08 3.19 3.09 2.84 2.76 2.85 3.02 2.89
2.58 2.68 2.46 2.36 2.59 2.75 1.68 1.09 0.94 0.92 0.95 0.62 0.53 0.90 1.18 1.42 1.57 1.63 1.58 1.61 1.54 1.44 1.42 1.35 1.36 1.37 1.69 1.89 2.20 2.45 2.51 2.37 2.18 2.12 2.08 2.17 2.17 2.27 2.41 2.40 2.79 3.21 3.46 3.28 3.02 2.88 2.80 2.82 2.75
2.18 2.56 2.66 2.58 2.47 2.17 1.32 1.02 0.82 0.61 0.62 0.55 0.43 0.64 0.84 0.87 1.17 1.46 1.49 1.50 1.48 1.38 1.43 1.35 1.34 1.46 1.76 1.88 1.93 2.27 2.44 2.39 1.97 1.72 1.74 1.73 1.70 1.83 2.01 2.09 2.65 2.92 3.23 3.23 3.04 2.76 2.62 2.49 2.42
2.25 2.53 2.36 1.88 1.66 1.38 1.06 0.92 0.76 0.80 0.89 0.77 0.59 0.65 0.80 0.88 1.03 1.30 1.35 1.25 1.21 1.19 1.22 1.24 1.25 1.31 1.50 1.64 2.01 2.18 1.96 2.01 1.66 1.55 1.51 1.50 1.60 1.72 1.60 1.85 2.40 2.66 2.90 2.99 2.86 2.67 2.35 2.02 1.82
1.88 2.07 1.68 1.42 1.20 0.96 0.92 0.87 0.67 0.81 1.03 0.81 0.61 0.68 0.81 0.93 1.06 1.17 1.25 1.17 1.06 1.04 0.96 0.93 1.01 1.06 1.20 1.42 1.57 1.79 2.00 1.98 1.92 1.78 1.65 1.67 1.55 1.47 1.53 1.70 1.87 2.11 2.27 2.31 2.38 2.28 1.95 1.73 1.67
1.63 1.56 1.36 1.23 0.90 0.93 0.95 0.83 0.76 0.72 0.78 0.57 0.50 0.59 0.77 0.95 1.10 1.11 1.17 1.18 1.11 1.09 1.07 0.89 0.86 0.92 1.06 1.16 1.27 1.48 1.65 1.72 1.72 1.63 1.48 1.66 1.64 1.52 1.56 1.75 1.85 1.88 2.04 2.31 2.38 2.31 2.00 1.75 1.59
1.52 1.57 1.27 1.05 0.92 0.97 0.91 0.85 0.75 0.75 0.64 0.51 0.50 0.64 0.88 1.09 1.14 1.15 1.11 1.13 1.15 1.16 1.17 1.01 0.84 0.88 1.03 1.14 1.16 1.16 1.39 1.49 1.51 1.63 1.52 1.51 1.54 1.46 1.39 1.47 1.73 1.83 1.91 2.15 2.26 2.13 2.03 1.98 1.87
1.33 1.30 1.25 1.09 0.99 1.01 1.02 0.86 0.76 0.91 0.78 0.65 0.71 0.83 0.98 1.11 1.11 1.06 0.99 0.98 1.01 1.03 1.07 1.00 0.90 0.95 1.03 1.03 1.01 1.02 1.05 1.25 1.26 1.25 1.18 1.32 1.49 1.47 1.44 1.36 1.52 1.83 1.96 2.04 2.04 1.95 1.98 1.97 1.91
1.12 1.23 1.40 1.30 1.21 1.18 1.08 1.21 0.96 0.96 0.91 0.80 0.80 0.86 1.04 1.01 0.99 0.96 0.88 0.81 0.80 0.89 0.95 0.99 0.98 0.99 1.02 1.06 1.08 1.05 1.13 1.19 1.25 1.22 1.15 1.25 1.38 1.43 1.38 1.30 1.42 1.69 1.92 2.00 2.00 1.92 1.98 1.89 1.74
1.31 1.63 1.92 1.59 1.31 1.28 1.26 1.51 1.10 1.03 0.95 0.87 0.83 0.81 0.90 0.82 0.83 0.84 0.79 0.73 0.71 0.72 0.81 0.91 0.89 0.96 1.01 1.05 1.15 1.18 1.27 1.29 1.29 1.31 1.22 1.21 1.32 1.42 1.52 1.46 1.41 1.62 1.88 2.14 2.31 2.17 2.10 2.03 1.91
1.68 1.77 1.73 1.64 1.27 1.28 1.24 1.36 1.18 1.01 0.93 0.82 0.78 0.79 0.77 0.69 0.66 0.70 0.70 0.67 0.62 0.62 0.63 0.74 0.85 0.90 0.96 1.03 1.14 1.14 1.21 1.43 1.50 1.39 1.32 1.42 1.47 1.45 1.62 1.72 1.63 1.70 1.94 2.08 2.15 2.19 2.09 2.06 2.00
1.37 1.34 1.37 1.49 1.24 1.15 1.12 1.08 1.11 0.97 0.80 0.77 0.75 0.72 0.66 0.63 0.56 0.57 0.59 0.62 0.59 0.59 0.59 0.64 0.76 0.82 0.85 0.97 1.13 1.24 1.23 1.32 1.54 1.58 1.59 1.67 1.78 1.77 1.84 1.90 1.88 1.89 2.04 2.07 2.25 2.48 2.32 2.10 2.04
1.00 1.01 1.08 1.03 0.90 1.01 1.01 0.97 1.04 0.99 0.86 0.74 0.73 0.76 0.69 0.60 0.59 0.53 0.49 0.56 0.59 0.56 0.55 0.63 0.72 0.78 0.80 0.92 1.04 1.14 1.26 1.41 1.61 1.67 1.73 1.85 1.94 1.97 2.06 2.14 2.19 2.13 2.07 2.15 2.35 2.77 2.72 2.38 2.12
0.91 0.94 0.97 0.89 0.79 0.84 0.93 0.97 0.97 0.92 0.85 0.76 0.69 0.60 0.62 0.54 0.49 0.44 0.43 0.44 0.47 0.49 0.51 0.58 0.70 0.81 0.87 0.95 1.08 1.26 1.52 1.57 1.70 1.92 1.91 1.90 1.93 1.98 2.05 2.26 2.38 2.35 2.36 2.44 2.50 2.78 3.00 2.76 2.53
0.89 0.85 0.80 0.82 0.80 0.81 0.91 1.12 1.03 0.95 0.80 0.70 0.63 0.54 0.47 0.47 0.43 0.35 0.37 0.40 0.42 0.46 0.57 0.65 0.78 0.97 1.17 1.28 1.50 1.84 2.12 2.17 2.07 2.08 2.15 2.14 2.13 2.17 2.12 2.20 2.38 2.41 2.42 2.51 2.69 2.99 3.37 3.39 3.07
0.92 0.65 0.58 0.69 0.88 1.04 0.87 1.26 1.02 0.90 0.82 0.65 0.58 0.55 0.49 0.50 0.52 0.41 0.38 0.40 0.40 0.46 0.63 0.85 1.10 1.41 1.63 1.76 1.93 2.20 2.35 2.40 2.28 2.24 2.27 2.31 2.21 2.13 2.14 2.19 2.33 2.50 2.65 2.81 2.85 2.80 3.27 3.66 3.48
0.74 0.59 0.59 0.70 0.84 0.90 0.75 0.95 0.90 0.72 0.81 0.70 0.64 0.61 0.56 0.56 0.56 0.55 0.52 0.57 0.59 0.70 0.94 1.31 1.62 1.87 2.02 2.06 2.11 2.36 2.51 2.66 2.66 2.51 2.36 2.31 2.29 2.25 2.19 2.18 2.19 2.21 2.33 2.49 2.64 2.71 2.98 3.26 3.49
0.62 0.70 0.76 0.79 0.93 1.07 0.70 0.74 0.92 0.74 0.69 0.70 0.70 0.64 0.60 0.59 0.61 0.71 0.85 0.97 1.04 1.14 1.38 1.63 1.80 1.98 2.02 2.01 2.02 2.15 2.35 2.53 2.53 2.50 2.45 2.37 2.29 2.21 2.10 2.03 2.08 2.08 2.07 2.20 2.35 2.50 2.79 3.00 3.16
0.70 0.96 1.26 1.28 1.24 1.03 0.58 0.72 0.79 0.56 0.50 0.57 0.64 0.65 0.63 0.60 0.69 0.92 1.11 1.25 1.34 1.45 1.57 1.65 1.65 1.75 1.81 1.84 1.86 1.88 1.95 2.02 2.05 2.13 2.06 1.95 1.84 1.78 1.76 1.69 1.71 1.82 1.87 2.02 2.11 2.08 2.17 2.41 2.64
0.68 0.78 1.17 1.31 1.13 0.91 0.68 0.90 0.79 0.58 0.56 0.49 0.53 0.64 0.75 0.87 0.96 1.09 1.22 1.35 1.40 1.54 1.61 1.57 1.53 1.53 1.49 1.47 1.56 1.61 1.62 1.71 1.73 1.66 1.60 1.51 1.43 1.43 1.41 1.41 1.42 1.47 1.52 1.70 1.91 1.95 1.97 2.07 2.19
0.60 0.62 0.70 0.92 0.87 0.89 0.79 0.89 0.79 0.58 0.56 0.51 0.53 0.64 0.79 0.99 1.22 1.40 1.41 1.33 1.29 1.36 1.46 1.46 1.40 1.33 1.24 1.20 1.27 1.36 1.49 1.49 1.46 1.39 1.28 1.26 1.16 1.20 1.20 1.23 1.32 1.38 1.35 1.43 1.55 1.74 1.82 1.89 1.98
0.48 0.57 0.75 1.06 1.22 1.18 0.92 0.99 0.95 0.73 0.66 0.62 0.66 0.76 0.92 1.10 1.32 1.59 1.71 1.61 1.37 1.21 1.24 1.22 1.25 1.30 1.28 1.24 1.25 1.25 1.23 1.16 1.14 1.17 1.05 1.01 1.06 1.10 1.11 1.10 1.16 1.23 1.25 1.34 1.43 1.46 1.56 1.65 1.83
0.50 0.59 0.75 0.98 0.99 1.27 1.49 1.41 1.04 0.89 0.82 0.80 0.85 0.93 1.00 1.25 1.55 1.69 1.73 1.60 1.45 1.17 1.10 1.10 1.13 1.23 1.29 1.22 1.25 1.23 1.13 1.04 0.99 0.92 0.85 0.84 0.89 0.94 0.95 0.98 1.08 1.12 1.15 1.19 1.19 1.21 1.27 1.34 1.47
0.46 0.57 0.76 1.16 1.13 1.07 1.31 1.31 0.83 0.85 0.96 0.89 0.95 1.05 1.09 1.18 1.25 1.27 1.37 1.38 1.30 1.17 1.11 1.19 1.25 1.28 1.26 1.21 1.20 1.16 1.08 1.03 1.03 0.92 0.80 0.84 0.88 0.88 0.90 0.99 1.03 1.04 1.10 1.12 1.09 1.11 1.19 1.30 1.38